Time,TemperatureF,DewpointF,PressureIn,WindDirection,WindDirectionDegrees,WindSpeedMPH,WindSpeedGustMPH,Humidity,HourlyPrecipIn,Conditions,Clouds,dailyrainin,SoftwareType,DateUTC
2013-05-02 00:02:00,63.5,33.9,29.85,South,188,2.4,3.1,33,0.00,,,0.00,WSDL version 420,2013-05-02 07:02:00,
2013-05-02 00:07:00,63.5,33.9,29.85,South,191,2.0,3.1,33,0.00,,,0.00,WSDL version 420,2013-05-02 07:07:00,
2013-05-02 00:12:00,63.3,34.5,29.85,South,191,2.5,4.3,34,0.00,,,0.00,WSDL version 420,2013-05-02 07:12:00,
2013-05-02 00:17:00,63.1,34.3,29.85,South,172,3.1,4.3,34,0.00,,,0.00,WSDL version 420,2013-05-02 07:17:00,
2013-05-02 00:22:00,62.7,34.0,29.85,South,175,2.9,4.3,34,0.00,,,0.00,WSDL version 420,2013-05-02 07:22:00,
2013-05-02 00:27:00,62.4,34.3,29.85,SSE,168,3.2,6.0,35,0.00,,,0.00,WSDL version 420,2013-05-02 07:27:00,
2013-05-02 00:32:00,62.1,34.5,29.85,SSE,158,3.0,6.0,36,0.00,,,0.00,WSDL version 420,2013-05-02 07:32:00,
2013-05-02 00:37:00,61.9,34.7,29.85,South,183,2.7,4.7,36,0.00,,,0.00,WSDL version 420,2013-05-02 07:37:00,
2013-05-02 00:42:00,61.6,34.9,29.85,South,183,3.0,4.9,37,0.00,,,0.00,WSDL version 420,2013-05-02 07:42:00,
2013-05-02 00:47:00,61.5,34.7,29.85,SSE,153,2.4,4.9,36,0.00,,,0.00,WSDL version 420,2013-05-02 07:47:00,
2013-05-02 00:52:00,61.5,34.3,29.85,SE,146,1.8,3.8,36,0.00,,,0.00,WSDL version 420,2013-05-02 07:52:00,
2013-05-02 00:57:00,61.4,34.2,29.85,SE,140,2.3,3.1,36,0.00,,,0.00,WSDL version 420,2013-05-02 07:57:00,
2013-05-02 01:02:00,61.3,34.2,29.88,SSE,158,1.8,3.1,36,0.00,,,0.00,WSDL version 420,2013-05-02 08:02:00,
2013-05-02 01:07:00,61.3,34.1,29.88,SSE,149,2.5,3.6,36,0.00,,,0.00,WSDL version 420,2013-05-02 08:07:00,
2013-05-02 01:12:00,61.2,34.0,29.88,SE,140,2.3,3.6,36,0.00,,,0.00,WSDL version 420,2013-05-02 08:12:00,
2013-05-02 01:17:00,61.1,34.0,29.88,SE,124,2.7,3.8,36,0.00,,,0.00,WSDL version 420,2013-05-02 08:17:00,
2013-05-02 01:22:00,60.9,33.8,29.88,ESE,113,2.8,3.8,36,0.00,,,0.00,WSDL version 420,2013-05-02 08:22:00,
2013-05-02 01:27:00,60.7,33.6,29.88,ESE,113,2.4,3.4,36,0.00,,,0.00,WSDL version 420,2013-05-02 08:27:00,
2013-05-02 01:32:00,60.5,33.4,29.88,SSE,158,0.0,3.4,36,0.00,,,0.00,WSDL version 420,2013-05-02 08:32:00,
2013-05-02 01:37:00,60.4,33.4,29.88,South,180,0.5,1.6,36,0.00,,,0.00,WSDL version 420,2013-05-02 08:37:00,
2013-05-02 01:42:00,60.4,33.4,29.88,South,180,0.0,1.6,36,0.00,,,0.00,WSDL version 420,2013-05-02 08:42:00,
2013-05-02 01:47:00,60.3,33.2,29.88,South,180,0.3,1.6,36,0.00,,,0.00,WSDL version 420,2013-05-02 08:47:00,
2013-05-02 01:52:00,60.0,33.0,29.88,East,87,1.2,2.2,36,0.00,,,0.00,WSDL version 420,2013-05-02 08:52:00,
2013-05-02 01:57:00,59.8,32.8,29.88,SE,128,1.4,2.5,36,0.00,,,0.00,WSDL version 420,2013-05-02 08:57:00,
2013-05-02 02:02:00,59.7,32.7,29.88,SE,138,1.6,2.7,36,0.00,,,0.00,WSDL version 420,2013-05-02 09:02:00,
2013-05-02 02:07:00,59.5,32.6,29.88,SSE,158,1.2,2.7,36,0.00,,,0.00,WSDL version 420,2013-05-02 09:07:00,
2013-05-02 02:12:00,59.4,32.4,29.88,SSE,158,1.3,2.7,36,0.00,,,0.00,WSDL version 420,2013-05-02 09:12:00,
2013-05-02 02:17:00,59.4,32.4,29.88,SSE,158,0.0,2.2,36,0.00,,,0.00,WSDL version 420,2013-05-02 09:17:00,
2013-05-02 02:22:00,59.2,32.3,29.88,ESE,123,1.9,2.7,36,0.00,,,0.00,WSDL version 420,2013-05-02 09:22:00,
2013-05-02 02:27:00,59.1,32.2,29.88,SSE,158,1.6,2.7,36,0.00,,,0.00,WSDL version 420,2013-05-02 09:27:00,
2013-05-02 02:32:00,58.8,32.6,29.88,South,180,1.7,2.7,37,0.00,,,0.00,WSDL version 420,2013-05-02 09:32:00,
2013-05-02 02:37:00,58.8,32.6,29.88,South,180,2.2,2.9,37,0.00,,,0.00,WSDL version 420,2013-05-02 09:37:00,
2013-05-02 02:42:00,58.9,32.5,29.88,South,180,1.2,2.9,36,0.00,,,0.00,WSDL version 420,2013-05-02 09:42:00,
2013-05-02 02:47:00,59.0,32.1,29.88,SSW,197,1.4,2.5,36,0.00,,,0.00,WSDL version 420,2013-05-02 09:47:00,
2013-05-02 02:52:00,59.0,32.8,29.88,South,186,2.3,3.1,37,0.00,,,0.00,WSDL version 420,2013-05-02 09:52:00,
2013-05-02 02:57:00,59.0,32.6,29.88,South,180,1.7,3.1,36,0.00,,,0.00,WSDL version 420,2013-05-02 09:57:00,
2013-05-02 03:02:00,59.0,32.1,29.88,SSW,203,1.3,2.5,36,0.00,,,0.00,WSDL version 420,2013-05-02 10:02:00,
2013-05-02 03:07:00,58.9,32.3,29.88,SSE,153,2.1,3.1,37,0.00,,,0.00,WSDL version 420,2013-05-02 10:07:00,
2013-05-02 03:12:00,58.6,32.4,29.88,SSW,203,1.6,3.1,37,0.00,,,0.00,WSDL version 420,2013-05-02 10:12:00,
2013-05-02 03:17:00,58.3,32.2,29.88,South,186,2.4,2.9,37,0.00,,,0.00,WSDL version 420,2013-05-02 10:17:00,
2013-05-02 03:22:00,58.3,32.1,29.88,SSW,193,1.9,2.9,37,0.00,,,0.00,WSDL version 420,2013-05-02 10:22:00,
2013-05-02 03:27:00,58.2,32.1,29.88,South,191,1.2,2.7,37,0.00,,,0.00,WSDL version 420,2013-05-02 10:27:00,
2013-05-02 03:32:00,58.1,32.0,29.88,South,180,1.4,2.0,37,0.00,,,0.00,WSDL version 420,2013-05-02 10:32:00,
2013-05-02 03:37:00,57.9,31.8,29.88,SSW,200,1.6,3.4,37,0.00,,,0.00,WSDL version 420,2013-05-02 10:37:00,
2013-05-02 03:42:00,57.8,31.7,29.88,SSW,197,2.9,3.6,37,0.00,,,0.00,WSDL version 420,2013-05-02 10:42:00,
2013-05-02 03:47:00,57.6,31.5,29.88,South,174,2.8,3.6,37,0.00,,,0.00,WSDL version 420,2013-05-02 10:47:00,
2013-05-02 03:52:00,57.6,31.6,29.88,SSE,153,1.9,3.4,38,0.00,,,0.00,WSDL version 420,2013-05-02 10:52:00,
2013-05-02 03:57:00,57.5,31.9,29.88,South,183,1.2,3.4,38,0.00,,,0.00,WSDL version 420,2013-05-02 10:57:00,
2013-05-02 04:02:00,57.3,32.0,29.88,SSE,158,1.9,2.9,38,0.00,,,0.00,WSDL version 420,2013-05-02 11:02:00,
2013-05-02 04:07:00,57.2,31.8,29.88,South,180,1.5,2.9,38,0.00,,,0.00,WSDL version 420,2013-05-02 11:07:00,
2013-05-02 04:15:00,57.2,31.8,29.88,SSE,152,1.7,3.1,38,0.00,,,0.00,WSDL version 420,2013-05-02 11:15:00,
2013-05-02 04:20:00,57.2,31.8,29.88,SE,129,2.4,3.6,38,0.00,,,0.00,WSDL version 420,2013-05-02 11:20:00,
2013-05-02 04:25:00,57.1,31.8,29.88,ESE,113,3.1,3.8,38,0.00,,,0.00,WSDL version 420,2013-05-02 11:25:00,
2013-05-02 04:30:00,57.0,31.6,29.88,ESE,115,2.4,3.8,38,0.00,,,0.00,WSDL version 420,2013-05-02 11:30:00,
2013-05-02 04:35:00,56.8,31.5,29.88,South,173,0.7,3.6,38,0.00,,,0.00,WSDL version 420,2013-05-02 11:35:00,
2013-05-02 04:40:00,56.8,31.5,29.88,ESE,110,2.1,3.4,38,0.00,,,0.00,WSDL version 420,2013-05-02 11:40:00,
2013-05-02 04:45:00,56.7,31.4,29.91,South,170,2.1,3.4,38,0.00,,,0.00,WSDL version 420,2013-05-02 11:45:00,
2013-05-02 04:50:00,56.8,31.4,29.91,SSE,158,2.7,3.8,38,0.00,,,0.00,WSDL version 420,2013-05-02 11:50:00,
2013-05-02 04:55:00,56.7,31.4,29.91,SE,133,2.5,3.8,38,0.00,,,0.00,WSDL version 420,2013-05-02 11:55:00,
2013-05-02 05:00:00,56.7,30.7,29.91,SE,145,1.7,3.6,37,0.00,,,0.00,WSDL version 420,2013-05-02 12:00:00,
2013-05-02 05:05:00,56.7,30.8,29.91,SE,138,1.8,2.5,37,0.00,,,0.00,WSDL version 420,2013-05-02 12:05:00,
2013-05-02 05:10:00,56.7,30.7,29.91,ESE,113,3.1,4.3,37,0.00,,,0.00,WSDL version 420,2013-05-02 12:10:00,
2013-05-02 05:15:00,56.7,30.7,29.91,ESE,113,3.7,4.3,37,0.00,,,0.00,WSDL version 420,2013-05-02 12:15:00,
2013-05-02 05:20:00,56.5,30.6,29.91,ESE,113,3.6,4.7,37,0.00,,,0.00,WSDL version 420,2013-05-02 12:20:00,
2013-05-02 05:25:00,56.3,30.4,29.91,ESE,107,3.4,4.7,37,0.00,,,0.00,WSDL version 420,2013-05-02 12:25:00,
2013-05-02 05:30:00,56.3,30.4,29.91,ESE,115,2.4,4.0,37,0.00,,,0.00,WSDL version 420,2013-05-02 12:30:00,
2013-05-02 05:35:00,56.2,30.3,29.91,SE,133,2.7,4.7,37,0.00,,,0.00,WSDL version 420,2013-05-02 12:35:00,
2013-05-02 05:40:00,56.1,29.7,29.91,SE,132,2.5,4.7,36,0.00,,,0.00,WSDL version 420,2013-05-02 12:40:00,
2013-05-02 05:45:00,56.1,29.5,29.91,SE,124,2.6,4.0,36,0.00,,,0.00,WSDL version 420,2013-05-02 12:45:00,
2013-05-02 05:50:00,56.2,29.6,29.91,East,93,1.9,3.8,36,0.00,,,0.00,WSDL version 420,2013-05-02 12:50:00,
2013-05-02 05:55:00,56.3,29.7,29.91,SE,145,1.9,2.9,36,0.00,,,0.00,WSDL version 420,2013-05-02 12:55:00,
2013-05-02 06:00:00,56.3,29.7,29.91,South,180,1.4,2.9,36,0.00,,,0.00,WSDL version 420,2013-05-02 13:00:00,
2013-05-02 06:05:00,56.3,29.7,29.91,SE,125,2.3,3.1,36,0.00,,,0.00,WSDL version 420,2013-05-02 13:05:00,
2013-05-02 06:10:00,56.4,29.8,29.91,South,183,1.5,3.1,36,0.00,,,0.00,WSDL version 420,2013-05-02 13:10:00,
2013-05-02 06:15:00,56.9,29.6,29.91,South,188,2.4,3.1,35,0.00,,,0.00,WSDL version 420,2013-05-02 13:15:00,
2013-05-02 06:20:00,57.5,30.1,29.91,South,188,2.5,3.6,35,0.00,,,0.00,WSDL version 420,2013-05-02 13:20:00,
2013-05-02 06:25:00,58.2,30.0,29.91,South,183,2.2,3.6,34,0.00,,,0.00,WSDL version 420,2013-05-02 13:25:00,
2013-05-02 06:30:00,58.6,30.3,29.91,SSE,165,1.8,3.4,34,0.00,,,0.00,WSDL version 420,2013-05-02 13:30:00,
2013-05-02 06:35:00,58.8,30.5,29.91,SSE,148,2.0,3.4,34,0.00,,,0.00,WSDL version 420,2013-05-02 13:35:00,
2013-05-02 06:40:00,58.6,30.4,29.91,SE,133,1.4,2.9,34,0.00,,,0.00,WSDL version 420,2013-05-02 13:40:00,
2013-05-02 06:45:00,58.7,30.4,29.91,SE,132,1.9,2.9,34,0.00,,,0.00,WSDL version 420,2013-05-02 13:45:00,
2013-05-02 06:50:00,58.6,30.4,29.91,ESE,123,2.0,3.4,34,0.00,,,0.00,WSDL version 420,2013-05-02 13:50:00,
2013-05-02 06:55:00,58.6,30.4,29.91,ESE,103,2.9,4.0,34,0.00,,,0.00,WSDL version 420,2013-05-02 13:55:00,
2013-05-02 07:00:00,58.7,30.4,29.91,East,100,3.8,4.9,34,0.00,,,0.00,WSDL version 420,2013-05-02 14:00:00,
2013-05-02 07:05:00,58.9,29.9,29.91,East,98,4.1,6.0,33,0.00,,,0.00,WSDL version 420,2013-05-02 14:05:00,
2013-05-02 07:10:00,59.3,29.8,29.91,East,93,4.6,6.3,32,0.00,,,0.00,WSDL version 420,2013-05-02 14:10:00,
2013-05-02 07:18:00,59.9,30.0,29.91,East,79,3.9,6.3,32,0.00,,,0.00,WSDL version 420,2013-05-02 14:18:00,
2013-05-02 07:23:00,60.4,30.4,29.91,East,90,3.3,6.3,32,0.00,,,0.00,WSDL version 420,2013-05-02 14:23:00,
2013-05-02 07:28:00,60.8,30.2,29.91,East,96,3.0,5.8,31,0.00,,,0.00,WSDL version 420,2013-05-02 14:28:00,
2013-05-02 07:33:00,61.2,30.4,29.91,East,80,2.7,4.9,31,0.00,,,0.00,WSDL version 420,2013-05-02 14:33:00,
2013-05-02 07:38:00,61.8,30.9,29.91,NE,53,0.8,4.9,31,0.00,,,0.00,WSDL version 420,2013-05-02 14:38:00,
2013-05-02 07:43:00,62.2,31.3,29.91,ENE,62,1.4,4.0,31,0.00,,,0.00,WSDL version 420,2013-05-02 14:43:00,
2013-05-02 07:48:00,62.4,31.7,29.91,South,180,0.9,2.5,32,0.00,,,0.00,WSDL version 420,2013-05-02 14:48:00,
2013-05-02 07:53:00,62.8,31.9,29.91,South,180,0.8,2.0,31,0.00,,,0.00,WSDL version 420,2013-05-02 14:53:00,
2013-05-02 07:58:00,63.1,32.0,29.91,East,80,1.2,2.2,31,0.00,,,0.00,WSDL version 420,2013-05-02 14:58:00,
2013-05-02 08:03:00,63.8,32.6,29.91,East,90,0.6,2.2,31,0.00,,,0.00,WSDL version 420,2013-05-02 15:03:00,
2013-05-02 08:08:00,64.3,32.7,29.91,South,180,0.0,2.0,30,0.00,,,0.00,WSDL version 420,2013-05-02 15:08:00,
2013-05-02 08:13:00,64.9,33.2,29.91,East,90,0.7,1.6,31,0.00,,,0.00,WSDL version 420,2013-05-02 15:13:00,
2013-05-02 08:18:00,65.3,33.4,29.94,North,5,0.5,2.2,31,0.00,,,0.00,WSDL version 420,2013-05-02 15:18:00,
2013-05-02 08:28:00,66.3,34.4,29.94,East,98,1.2,3.6,30,0.00,,,0.00,WSDL version 420,2013-05-02 15:28:00,
2013-05-02 08:33:00,66.7,34.2,29.94,East,90,1.2,3.6,30,0.00,,,0.00,WSDL version 420,2013-05-02 15:33:00,
2013-05-02 08:38:00,67.1,34.4,29.94,East,80,2.4,4.0,29,0.00,,,0.00,WSDL version 420,2013-05-02 15:38:00,
2013-05-02 08:43:00,67.7,34.5,29.94,East,95,3.4,6.5,29,0.00,,,0.00,WSDL version 420,2013-05-02 15:43:00,
2013-05-02 08:48:00,68.3,34.0,29.91,ENE,73,2.7,6.5,28,0.00,,,0.00,WSDL version 420,2013-05-02 15:48:00,
2013-05-02 08:53:00,68.9,34.5,29.91,ESE,118,3.8,7.2,28,0.00,,,0.00,WSDL version 420,2013-05-02 15:53:00,
2013-05-02 08:58:00,69.7,34.8,29.91,ESE,118,2.1,7.2,27,0.00,,,0.00,WSDL version 420,2013-05-02 15:58:00,
2013-05-02 09:03:00,70.4,34.5,29.94,ENE,64,1.8,4.7,26,0.00,,,0.00,WSDL version 420,2013-05-02 16:03:00,
2013-05-02 09:08:00,71.1,34.8,29.94,ENE,71,3.3,6.5,25,0.00,,,0.00,WSDL version 420,2013-05-02 16:08:00,
2013-05-02 09:13:00,71.7,34.0,29.94,East,98,3.0,6.5,25,0.00,,,0.00,WSDL version 420,2013-05-02 16:13:00,
2013-05-02 09:18:00,72.3,33.7,29.94,ENE,78,3.5,7.4,24,0.00,,,0.00,WSDL version 420,2013-05-02 16:18:00,
2013-05-02 09:23:00,73.0,34.1,29.94,East,90,3.7,8.1,24,0.00,,,0.00,WSDL version 420,2013-05-02 16:23:00,
2013-05-02 09:28:00,73.4,33.7,29.94,East,93,3.6,8.1,23,0.00,,,0.00,WSDL version 420,2013-05-02 16:28:00,
2013-05-02 09:33:00,74.0,33.9,29.91,East,87,3.7,6.0,23,0.00,,,0.00,WSDL version 420,2013-05-02 16:33:00,
2013-05-02 09:38:00,74.6,34.2,29.91,SE,138,3.0,5.6,23,0.00,,,0.00,WSDL version 420,2013-05-02 16:38:00,
2013-05-02 09:43:00,75.2,33.2,29.91,SSE,163,3.2,6.5,21,0.00,,,0.00,WSDL version 420,2013-05-02 16:43:00,
2013-05-02 09:48:00,75.7,34.2,29.91,East,80,3.8,6.5,22,0.00,,,0.00,WSDL version 420,2013-05-02 16:48:00,
2013-05-02 09:53:00,76.4,34.7,29.91,ESE,118,2.3,6.0,22,0.00,,,0.00,WSDL version 420,2013-05-02 16:53:00,
2013-05-02 09:58:00,76.9,34.1,29.91,SSE,152,3.8,6.0,21,0.00,,,0.00,WSDL version 420,2013-05-02 16:58:00,
2013-05-02 10:03:00,77.5,34.5,29.91,ENE,75,3.5,6.3,21,0.00,,,0.00,WSDL version 420,2013-05-02 17:03:00,
2013-05-02 10:08:00,78.1,34.3,29.91,NE,42,2.3,6.3,20,0.00,,,0.00,WSDL version 420,2013-05-02 17:08:00,
2013-05-02 10:13:00,78.5,35.3,29.91,ENE,65,2.6,8.1,21,0.00,,,0.00,WSDL version 420,2013-05-02 17:13:00,
2013-05-02 10:18:00,79.0,34.5,29.91,ENE,70,3.8,8.1,20,0.00,,,0.00,WSDL version 420,2013-05-02 17:18:00,
2013-05-02 10:23:00,79.4,33.6,29.91,NE,34,3.7,8.9,17,0.00,,,0.00,WSDL version 420,2013-05-02 17:23:00,
2013-05-02 10:28:00,79.6,34.2,29.91,ESE,105,3.0,8.9,20,0.00,,,0.00,WSDL version 420,2013-05-02 17:28:00,
2013-05-02 10:33:00,80.2,35.5,29.91,East,87,2.5,6.0,20,0.00,,,0.00,WSDL version 420,2013-05-02 17:33:00,
2013-05-02 10:38:00,80.7,34.9,29.91,ENE,75,4.7,8.7,19,0.00,,,0.00,WSDL version 420,2013-05-02 17:38:00,
2013-05-02 10:43:00,80.8,32.2,29.91,ENE,70,4.1,8.7,14,0.00,,,0.00,WSDL version 420,2013-05-02 17:43:00,
2013-05-02 10:48:00,81.1,32.2,29.91,East,96,3.5,8.5,17,0.00,,,0.00,WSDL version 420,2013-05-02 17:48:00,
2013-05-02 10:53:00,81.5,32.5,29.91,NE,53,3.7,8.5,17,0.00,,,0.00,WSDL version 420,2013-05-02 17:53:00,
2013-05-02 10:58:00,81.8,32.8,29.91,ENE,76,5.2,7.8,17,0.00,,,0.00,WSDL version 420,2013-05-02 17:58:00,
2013-05-02 11:03:00,82.1,30.6,29.91,NE,53,3.9,7.8,14,0.00,,,0.00,WSDL version 420,2013-05-02 18:03:00,
2013-05-02 11:08:00,82.4,28.5,29.91,ESE,109,4.4,11.0,14,0.00,,,0.00,WSDL version 420,2013-05-02 18:08:00,
2013-05-02 11:13:00,82.8,28.8,29.91,ENE,70,6.1,11.0,14,0.00,,,0.00,WSDL version 420,2013-05-02 18:13:00,
2013-05-02 11:18:00,83.2,29.1,29.91,ENE,65,3.7,10.3,14,0.00,,,0.00,WSDL version 420,2013-05-02 18:18:00,
2013-05-02 11:23:00,83.6,29.4,29.91,East,90,4.3,7.6,14,0.00,,,0.00,WSDL version 420,2013-05-02 18:23:00,
2013-05-02 11:28:00,83.9,29.6,29.91,ESE,103,5.1,11.4,14,0.00,,,0.00,WSDL version 420,2013-05-02 18:28:00,
2013-05-02 11:33:00,84.3,28.2,29.91,East,87,6.3,11.4,13,0.00,,,0.00,WSDL version 420,2013-05-02 18:33:00,
2013-05-02 11:38:00,84.5,27.5,29.91,ESE,105,4.2,10.7,13,0.00,,,0.00,WSDL version 420,2013-05-02 18:38:00,
2013-05-02 11:43:00,84.9,28.6,29.91,East,90,4.9,8.7,13,0.00,,,0.00,WSDL version 420,2013-05-02 18:43:00,
2013-05-02 11:48:00,85.0,26.2,29.91,ENE,63,3.1,8.7,13,0.00,,,0.00,WSDL version 420,2013-05-02 18:48:00,
2013-05-02 11:53:00,85.4,29.0,29.91,ESE,105,5.9,8.7,13,0.00,,,0.00,WSDL version 420,2013-05-02 18:53:00,
2013-05-02 11:58:00,85.6,29.2,29.91,East,90,6.4,9.6,13,0.00,,,0.00,WSDL version 420,2013-05-02 18:58:00,
2013-05-02 12:03:00,86.0,28.8,29.91,ESE,105,6.0,12.3,13,0.00,,,0.00,WSDL version 420,2013-05-02 19:03:00,
2013-05-02 12:08:00,86.2,29.6,29.91,East,84,5.3,12.3,13,0.00,,,0.00,WSDL version 420,2013-05-02 19:08:00,
2013-05-02 12:13:00,86.5,27.5,29.91,ENE,73,3.8,10.7,11,0.00,,,0.00,WSDL version 420,2013-05-02 19:13:00,
2013-05-02 12:18:00,86.9,26.1,29.91,East,79,6.5,10.7,11,0.00,,,0.00,WSDL version 420,2013-05-02 19:18:00,
2013-05-02 12:23:00,87.2,28.0,29.91,East,82,5.3,10.7,11,0.00,,,0.00,WSDL version 420,2013-05-02 19:23:00,
2013-05-02 12:28:00,87.4,26.5,29.91,East,88,5.4,8.7,11,0.00,,,0.00,WSDL version 420,2013-05-02 19:28:00,
2013-05-02 12:33:00,87.5,26.6,29.91,East,96,5.7,11.0,11,0.00,,,0.00,WSDL version 420,2013-05-02 19:33:00,
2013-05-02 12:38:00,87.5,26.6,29.91,SE,129,6.2,11.0,11,0.00,,,0.00,WSDL version 420,2013-05-02 19:38:00,
2013-05-02 12:43:00,87.6,26.7,29.91,SE,143,6.0,10.3,11,0.00,,,0.00,WSDL version 420,2013-05-02 19:43:00,
2013-05-02 12:48:00,87.9,25.1,29.91,SE,130,5.0,10.3,10,0.00,,,0.00,WSDL version 420,2013-05-02 19:48:00,
2013-05-02 12:53:00,88.2,24.8,29.91,East,96,4.3,10.7,10,0.00,,,0.00,WSDL version 420,2013-05-02 19:53:00,
2013-05-02 12:58:00,88.6,25.1,29.91,NE,48,4.3,10.7,10,0.00,,,0.00,WSDL version 420,2013-05-02 19:58:00,
2013-05-02 13:03:00,88.6,23.3,29.91,NE,51,3.9,8.5,8,0.00,,,0.00,WSDL version 420,2013-05-02 20:03:00,
2013-05-02 13:08:00,88.7,24.1,29.91,NE,48,3.5,6.3,10,0.00,,,0.00,WSDL version 420,2013-05-02 20:08:00,
2013-05-02 13:13:00,88.9,21.1,29.91,NE,45,3.8,6.0,8,0.00,,,0.00,WSDL version 420,2013-05-02 20:13:00,
2013-05-02 13:18:00,89.0,20.1,29.91,NE,42,3.0,6.0,8,0.00,,,0.00,WSDL version 420,2013-05-02 20:18:00,
2013-05-02 13:23:00,89.1,21.5,29.91,ENE,77,4.3,7.8,10,0.00,,,0.00,WSDL version 420,2013-05-02 20:23:00,
2013-05-02 13:28:00,89.8,24.6,29.91,NE,45,4.2,7.8,7,0.00,,,0.00,WSDL version 420,2013-05-02 20:28:00,
2013-05-02 13:33:00,89.6,18.5,29.91,ESE,115,5.1,9.8,7,0.00,,,0.00,WSDL version 420,2013-05-02 20:33:00,
2013-05-02 13:38:00,89.9,19.8,29.91,NE,48,3.2,9.8,7,0.00,,,0.00,WSDL version 420,2013-05-02 20:38:00,
2013-05-02 13:43:00,89.8,17.6,29.91,NE,43,4.0,6.3,7,0.00,,,0.00,WSDL version 420,2013-05-02 20:43:00,
2013-05-02 13:48:00,89.8,17.6,29.91,NE,55,2.9,6.3,7,0.00,,,0.00,WSDL version 420,2013-05-02 20:48:00,
2013-05-02 13:53:00,90.4,18.0,29.91,NE,45,3.7,6.0,7,0.00,,,0.00,WSDL version 420,2013-05-02 20:53:00,
2013-05-02 13:58:00,90.4,18.0,29.91,NNE,33,1.7,6.0,7,0.00,,,0.00,WSDL version 420,2013-05-02 20:58:00,
2013-05-02 14:03:00,90.3,18.0,29.88,North,354,2.6,5.4,7,0.00,,,0.00,WSDL version 420,2013-05-02 21:03:00,
2013-05-02 14:08:00,90.4,18.0,29.88,North,5,2.4,5.4,7,0.00,,,0.00,WSDL version 420,2013-05-02 21:08:00,
2013-05-02 14:13:00,90.9,18.4,29.88,ENE,65,4.4,7.6,7,0.00,,,0.00,WSDL version 420,2013-05-02 21:13:00,
2013-05-02 14:18:00,91.5,18.8,29.88,SE,146,2.8,7.6,7,0.00,,,0.00,WSDL version 420,2013-05-02 21:18:00,
2013-05-02 14:23:00,91.4,18.8,29.88,NNE,28,1.8,6.0,7,0.00,,,0.00,WSDL version 420,2013-05-02 21:23:00,
2013-05-02 14:28:00,91.3,18.7,29.88,NE,37,2.5,6.0,7,0.00,,,0.00,WSDL version 420,2013-05-02 21:28:00,
2013-05-02 14:33:00,91.7,19.0,29.88,NNE,18,3.1,6.0,7,0.00,,,0.00,WSDL version 420,2013-05-02 21:33:00,
2013-05-02 14:38:00,91.6,18.9,29.88,East,87,1.2,4.9,7,0.00,,,0.00,WSDL version 420,2013-05-02 21:38:00,
2013-05-02 14:43:00,92.2,19.4,29.88,East,98,2.8,4.3,7,0.00,,,0.00,WSDL version 420,2013-05-02 21:43:00,
2013-05-02 14:48:00,92.8,19.8,29.88,ESE,110,3.8,7.6,7,0.00,,,0.00,WSDL version 420,2013-05-02 21:48:00,
2013-05-02 14:53:00,92.3,19.5,29.88,NNW,332,2.3,7.6,7,0.00,,,0.00,WSDL version 420,2013-05-02 21:53:00,
2013-05-02 14:58:00,91.8,22.0,29.88,NW,318,3.6,5.6,10,0.00,,,0.00,WSDL version 420,2013-05-02 21:58:00,
2013-05-02 15:03:00,89.5,25.8,29.88,North,350,4.1,6.0,10,0.00,,,0.00,WSDL version 420,2013-05-02 22:03:00,
2013-05-02 15:08:00,88.1,23.7,29.88,NNW,340,3.9,6.5,8,0.00,,,0.00,WSDL version 420,2013-05-02 22:08:00,
2013-05-02 15:13:00,88.0,19.4,29.88,NW,323,3.3,6.5,8,0.00,,,0.00,WSDL version 420,2013-05-02 22:13:00,
2013-05-02 15:18:00,88.5,19.7,29.88,North,358,3.0,5.8,8,0.00,,,0.00,WSDL version 420,2013-05-02 22:18:00,
2013-05-02 15:23:00,88.7,19.9,29.88,NNW,330,3.4,6.0,8,0.00,,,0.00,WSDL version 420,2013-05-02 22:23:00,
2013-05-02 15:28:00,88.4,19.7,29.88,NW,307,4.1,6.0,8,0.00,,,0.00,WSDL version 420,2013-05-02 22:28:00,
2013-05-02 15:33:00,88.6,19.8,29.88,NW,309,3.0,6.7,8,0.00,,,0.00,WSDL version 420,2013-05-02 22:33:00,
2013-05-02 15:38:00,88.8,20.0,29.88,West,273,3.1,6.7,8,0.00,,,0.00,WSDL version 420,2013-05-02 22:38:00,
2013-05-02 15:43:00,89.0,20.1,29.88,NNW,340,3.6,6.0,8,0.00,,,0.00,WSDL version 420,2013-05-02 22:43:00,
2013-05-02 15:48:00,89.4,19.4,29.88,NNW,331,4.3,5.8,8,0.00,,,0.00,WSDL version 420,2013-05-02 22:48:00,
2013-05-02 15:53:00,88.7,19.9,29.88,North,352,3.8,5.8,8,0.00,,,0.00,WSDL version 420,2013-05-02 22:53:00,
2013-05-02 15:58:00,89.0,20.1,29.88,North,355,3.1,6.3,8,0.00,,,0.00,WSDL version 420,2013-05-02 22:58:00,
2013-05-02 16:03:00,89.7,17.6,29.88,North,352,3.5,6.3,7,0.00,,,0.00,WSDL version 420,2013-05-02 23:03:00,
2013-05-02 16:08:00,89.6,17.5,29.88,North,353,4.1,5.4,7,0.00,,,0.00,WSDL version 420,2013-05-02 23:08:00,
2013-05-02 16:13:00,90.0,17.7,29.88,WNW,287,2.7,5.8,7,0.00,,,0.00,WSDL version 420,2013-05-02 23:13:00,
2013-05-02 16:18:00,90.4,18.0,29.85,WSW,253,2.8,5.8,7,0.00,,,0.00,WSDL version 420,2013-05-02 23:18:00,
2013-05-02 16:23:00,90.7,18.3,29.85,West,281,2.3,4.3,7,0.00,,,0.00,WSDL version 420,2013-05-02 23:23:00,
2013-05-02 16:28:00,90.8,18.3,29.85,SSE,166,2.0,3.6,7,0.00,,,0.00,WSDL version 420,2013-05-02 23:28:00,
2013-05-02 16:33:00,91.2,18.6,29.85,NNW,333,2.6,6.3,7,0.00,,,0.00,WSDL version 420,2013-05-02 23:33:00,
2013-05-02 16:38:00,91.1,21.4,29.85,SSW,206,4.5,7.8,10,0.00,,,0.00,WSDL version 420,2013-05-02 23:38:00,
2013-05-02 16:43:00,90.6,26.6,29.85,SW,218,4.5,7.8,10,0.00,,,0.00,WSDL version 420,2013-05-02 23:43:00,
2013-05-02 16:48:00,90.0,26.2,29.85,SW,214,3.7,8.5,10,0.00,,,0.00,WSDL version 420,2013-05-02 23:48:00,
2013-05-02 16:53:00,89.7,22.6,29.85,WSW,248,4.1,8.5,10,0.00,,,0.00,WSDL version 420,2013-05-02 23:53:00,
2013-05-02 16:58:00,89.2,25.6,29.85,SW,214,4.4,7.6,10,0.00,,,0.00,WSDL version 420,2013-05-02 23:58:00,
2013-05-02 17:03:00,88.6,25.1,29.85,SW,220,4.1,7.6,10,0.00,,,0.00,WSDL version 420,2013-05-03 00:03:00,
2013-05-02 17:08:00,88.1,24.8,29.85,SW,214,4.1,7.6,10,0.00,,,0.00,WSDL version 420,2013-05-03 00:08:00,
2013-05-02 17:13:00,87.6,25.9,29.85,SSW,211,4.6,7.2,11,0.00,,,0.00,WSDL version 420,2013-05-03 00:13:00,
2013-05-02 17:18:00,87.1,26.3,29.85,SW,222,4.3,8.1,11,0.00,,,0.00,WSDL version 420,2013-05-03 00:18:00,
2013-05-02 17:23:00,86.7,26.0,29.85,SW,228,3.8,8.1,11,0.00,,,0.00,WSDL version 420,2013-05-03 00:23:00,
2013-05-02 17:28:00,86.5,25.8,29.85,SSW,203,4.5,7.2,11,0.00,,,0.00,WSDL version 420,2013-05-03 00:28:00,
2013-05-02 17:33:00,86.1,25.5,29.85,SSW,211,4.7,7.2,11,0.00,,,0.00,WSDL version 420,2013-05-03 00:33:00,
2013-05-02 17:38:00,85.8,25.3,29.85,SW,220,5.0,7.2,11,0.00,,,0.00,WSDL version 420,2013-05-03 00:38:00,
2013-05-02 17:43:00,85.5,25.0,29.85,SSW,196,4.5,8.7,11,0.00,,,0.00,WSDL version 420,2013-05-03 00:43:00,
2013-05-02 17:48:00,85.1,24.7,29.85,SW,219,4.1,8.7,11,0.00,,,0.00,WSDL version 420,2013-05-03 00:48:00,
2013-05-02 17:53:00,84.9,24.6,29.85,SSW,203,3.3,8.5,11,0.00,,,0.00,WSDL version 420,2013-05-03 00:53:00,
2013-05-02 17:58:00,84.8,24.5,29.85,SSW,203,5.8,8.7,11,0.00,,,0.00,WSDL version 420,2013-05-03 00:58:00,
2013-05-02 18:03:00,84.4,24.2,29.85,SW,215,4.7,8.7,11,0.00,,,0.00,WSDL version 420,2013-05-03 01:03:00,
2013-05-02 18:08:00,84.0,23.9,29.85,SSW,212,4.0,7.8,11,0.00,,,0.00,WSDL version 420,2013-05-03 01:08:00,
2013-05-02 18:13:00,83.6,23.6,29.85,SSW,210,4.3,7.8,11,0.00,,,0.00,WSDL version 420,2013-05-03 01:13:00,
2013-05-02 18:18:00,83.0,23.2,29.85,SSW,210,4.6,7.4,11,0.00,,,0.00,WSDL version 420,2013-05-03 01:18:00,
2013-05-02 18:23:00,82.6,22.8,29.85,SW,214,4.5,6.5,11,0.00,,,0.00,WSDL version 420,2013-05-03 01:23:00,
2013-05-02 18:28:00,82.2,23.9,29.85,SW,218,4.2,7.4,12,0.00,,,0.00,WSDL version 420,2013-05-03 01:28:00,
2013-05-02 18:33:00,82.0,24.4,29.85,WSW,238,3.8,7.4,12,0.00,,,0.00,WSDL version 420,2013-05-03 01:33:00,
2013-05-02 18:38:00,81.7,26.0,29.85,SW,219,3.5,7.4,14,0.00,,,0.00,WSDL version 420,2013-05-03 01:38:00,
2013-05-02 18:43:00,81.4,27.7,29.85,SW,225,2.7,7.4,14,0.00,,,0.00,WSDL version 420,2013-05-03 01:43:00,
2013-05-02 18:48:00,81.1,27.5,29.85,SW,214,2.3,6.0,14,0.00,,,0.00,WSDL version 420,2013-05-03 01:48:00,
2013-05-02 18:53:00,81.1,27.4,29.85,SW,233,1.8,6.0,14,0.00,,,0.00,WSDL version 420,2013-05-03 01:53:00,
2013-05-02 18:58:00,80.9,27.3,29.85,SSW,203,1.6,3.4,14,0.00,,,0.00,WSDL version 420,2013-05-03 01:58:00,
2013-05-02 19:03:00,80.7,27.2,29.85,SW,228,1.8,3.8,14,0.00,,,0.00,WSDL version 420,2013-05-03 02:03:00,
2013-05-02 19:08:00,80.5,27.8,29.85,SW,214,2.8,4.0,15,0.00,,,0.00,WSDL version 420,2013-05-03 02:08:00,
2013-05-02 19:13:00,80.1,28.4,29.85,SW,233,2.3,4.0,15,0.00,,,0.00,WSDL version 420,2013-05-03 02:13:00,
2013-05-02 19:18:00,79.9,28.2,29.85,SW,225,3.2,4.7,15,0.00,,,0.00,WSDL version 420,2013-05-03 02:18:00,
2013-05-02 19:23:00,79.6,27.9,29.85,SW,225,2.3,4.7,15,0.00,,,0.00,WSDL version 420,2013-05-03 02:23:00,
2013-05-02 19:28:00,79.3,27.7,29.85,WSW,248,0.7,3.6,15,0.00,,,0.00,WSDL version 420,2013-05-03 02:28:00,
2013-05-02 19:33:00,79.0,27.4,29.85,SW,222,1.6,3.4,15,0.00,,,0.00,WSDL version 420,2013-05-03 02:33:00,
2013-05-02 19:38:00,78.6,27.1,29.85,NW,318,1.1,3.4,15,0.00,,,0.00,WSDL version 420,2013-05-03 02:38:00,
2013-05-02 19:43:00,78.3,27.6,29.85,SSW,206,2.1,3.1,15,0.00,,,0.00,WSDL version 420,2013-05-03 02:43:00,
2013-05-02 19:48:00,77.9,26.6,29.85,SW,223,2.2,3.4,15,0.00,,,0.00,WSDL version 420,2013-05-03 02:48:00,
2013-05-02 19:53:00,77.5,26.3,29.85,SSW,203,1.0,3.4,15,0.00,,,0.00,WSDL version 420,2013-05-03 02:53:00,
2013-05-02 19:58:00,77.0,25.9,29.85,WSW,256,0.0,2.7,15,0.00,,,0.00,WSDL version 420,2013-05-03 02:58:00,
2013-05-02 20:03:00,76.5,25.4,29.85,WNW,290,1.8,2.9,15,0.00,,,0.00,WSDL version 420,2013-05-03 03:03:00,
2013-05-02 20:08:00,76.0,25.1,29.85,West,278,0.0,2.9,15,0.00,,,0.00,WSDL version 420,2013-05-03 03:08:00,
2013-05-02 20:13:00,75.8,24.9,29.85,SSW,203,0.2,1.6,15,0.00,,,0.00,WSDL version 420,2013-05-03 03:13:00,
2013-05-02 20:18:00,75.4,25.3,29.85,SW,214,0.0,2.0,18,0.00,,,0.00,WSDL version 420,2013-05-03 03:18:00,
2013-05-02 20:23:00,75.1,27.9,29.85,SSW,203,0.0,2.0,18,0.00,,,0.00,WSDL version 420,2013-05-03 03:23:00,
2013-05-02 20:28:00,74.8,28.5,29.85,SSW,203,1.0,1.6,18,0.00,,,0.00,WSDL version 420,2013-05-03 03:28:00,
2013-05-02 20:33:00,74.6,28.3,29.85,SSW,203,1.3,2.0,18,0.00,,,0.00,WSDL version 420,2013-05-03 03:33:00,
2013-05-02 20:38:00,74.2,28.0,29.85,SSW,203,0.2,2.0,18,0.00,,,0.00,WSDL version 420,2013-05-03 03:38:00,
2013-05-02 20:43:00,73.9,27.7,29.85,SSW,203,0.5,2.2,18,0.00,,,0.00,WSDL version 420,2013-05-03 03:43:00,
2013-05-02 20:48:00,73.8,27.7,29.85,SW,225,0.7,2.2,18,0.00,,,0.00,WSDL version 420,2013-05-03 03:48:00,
2013-05-02 20:53:00,73.7,27.6,29.85,SSW,203,0.0,1.6,18,0.00,,,0.00,WSDL version 420,2013-05-03 03:53:00,
2013-05-02 20:58:00,73.5,27.4,29.85,SSW,203,0.0,1.3,18,0.00,,,0.00,WSDL version 420,2013-05-03 03:58:00,
2013-05-02 21:06:00,73.2,28.5,29.85,South,186,0.1,2.0,19,0.00,,,0.00,WSDL version 420,2013-05-03 04:06:00,
2013-05-02 21:11:00,73.0,27.6,29.85,SSW,200,0.3,2.0,16,0.00,,,0.00,WSDL version 420,2013-05-03 04:11:00,
2013-05-02 21:16:00,72.8,24.0,29.85,SSW,203,0.0,1.6,16,0.00,,,0.00,WSDL version 420,2013-05-03 04:16:00,
2013-05-02 21:21:00,72.6,23.9,29.85,SSW,203,0.0,2.0,16,0.00,,,0.00,WSDL version 420,2013-05-03 04:21:00,
2013-05-02 21:26:00,72.5,23.8,29.85,SSW,203,0.0,2.0,16,0.00,,,0.00,WSDL version 420,2013-05-03 04:26:00,
2013-05-02 21:31:00,72.2,23.5,29.85,South,183,1.3,2.5,16,0.00,,,0.00,WSDL version 420,2013-05-03 04:31:00,
2013-05-02 21:36:00,71.9,26.6,29.85,SSE,155,1.2,3.1,19,0.00,,,0.00,WSDL version 420,2013-05-03 04:36:00,
2013-05-02 21:41:00,71.8,27.3,29.85,SSE,158,1.9,3.1,19,0.00,,,0.00,WSDL version 420,2013-05-03 04:41:00,
2013-05-02 21:46:00,71.5,27.1,29.85,SSW,203,2.1,2.9,19,0.00,,,0.00,WSDL version 420,2013-05-03 04:46:00,
2013-05-02 21:51:00,71.3,27.0,29.85,South,191,1.9,2.9,19,0.00,,,0.00,WSDL version 420,2013-05-03 04:51:00,
2013-05-02 21:56:00,71.2,26.8,29.85,South,191,2.3,3.6,19,0.00,,,0.00,WSDL version 420,2013-05-03 04:56:00,
2013-05-02 22:01:00,71.0,26.7,29.85,South,188,1.6,3.6,19,0.00,,,0.00,WSDL version 420,2013-05-03 05:01:00,
2013-05-02 22:06:00,70.7,26.5,29.85,SSW,194,1.7,2.5,19,0.00,,,0.00,WSDL version 420,2013-05-03 05:06:00,
2013-05-02 22:11:00,70.6,26.3,29.85,SSW,203,1.2,2.5,19,0.00,,,0.00,WSDL version 420,2013-05-03 05:11:00,
2013-05-02 22:16:00,70.4,26.2,29.85,South,186,1.8,2.5,19,0.00,,,0.00,WSDL version 420,2013-05-03 05:16:00,
2013-05-02 22:21:00,70.2,26.0,29.85,SSW,195,1.1,2.5,19,0.00,,,0.00,WSDL version 420,2013-05-03 05:21:00,
2013-05-02 22:26:00,70.0,25.8,29.85,South,188,1.3,2.2,19,0.00,,,0.00,WSDL version 420,2013-05-03 05:26:00,
2013-05-02 22:31:00,69.7,26.4,29.85,South,183,1.5,2.2,20,0.00,,,0.00,WSDL version 420,2013-05-03 05:31:00,
2013-05-02 22:36:00,69.5,26.7,29.85,South,185,1.7,2.7,20,0.00,,,0.00,WSDL version 420,2013-05-03 05:36:00,
2013-05-02 22:41:00,69.3,26.6,29.85,South,186,1.5,2.9,20,0.00,,,0.00,WSDL version 420,2013-05-03 05:41:00,
2013-05-02 22:46:00,69.3,26.5,29.85,South,183,1.5,2.9,20,0.00,,,0.00,WSDL version 420,2013-05-03 05:46:00,
2013-05-02 22:51:00,69.1,26.4,29.85,South,188,1.5,2.5,20,0.00,,,0.00,WSDL version 420,2013-05-03 05:51:00,
2013-05-02 22:56:00,68.8,28.4,29.85,South,188,1.9,2.9,22,0.00,,,0.00,WSDL version 420,2013-05-03 05:56:00,
2013-05-02 23:01:00,68.5,28.2,29.88,South,188,2.4,3.1,22,0.00,,,0.00,WSDL version 420,2013-05-03 06:01:00,
2013-05-02 23:06:00,68.4,28.1,29.88,SSW,194,2.3,3.4,22,0.00,,,0.00,WSDL version 420,2013-05-03 06:06:00,
2013-05-02 23:11:00,68.4,28.1,29.88,South,188,2.5,3.8,22,0.00,,,0.00,WSDL version 420,2013-05-03 06:11:00,
2013-05-02 23:16:00,68.3,28.0,29.85,South,190,1.4,3.8,22,0.00,,,0.00,WSDL version 420,2013-05-03 06:16:00,
2013-05-02 23:21:00,68.1,27.8,29.85,South,170,1.9,3.1,22,0.00,,,0.00,WSDL version 420,2013-05-03 06:21:00,
2013-05-02 23:26:00,67.8,28.7,29.85,SSW,205,1.4,2.7,23,0.00,,,0.00,WSDL version 420,2013-05-03 06:26:00,
2013-05-02 23:31:00,67.6,28.5,29.85,South,183,2.3,3.1,23,0.00,,,0.00,WSDL version 420,2013-05-03 06:31:00,
2013-05-02 23:36:00,67.5,28.4,29.85,SSW,193,2.4,3.1,23,0.00,,,0.00,WSDL version 420,2013-05-03 06:36:00,
2013-05-02 23:41:00,67.5,27.5,29.85,SSW,203,1.9,2.7,22,0.00,,,0.00,WSDL version 420,2013-05-03 06:41:00,
2013-05-02 23:46:00,67.5,27.3,29.85,SSW,195,2.2,3.8,22,0.00,,,0.00,WSDL version 420,2013-05-03 06:46:00,
2013-05-02 23:51:00,67.6,27.4,29.85,SSW,200,3.9,4.7,22,0.00,,,0.00,WSDL version 420,2013-05-03 06:51:00,
2013-05-02 23:56:00,67.5,27.8,29.85,SSW,194,3.2,4.7,23,0.00,,,0.00,WSDL version 420,2013-05-03 06:56:00,